Location: *
(48.2833°N, 2.6667°W)
Time: 18:10:54
(UTC+00:00)

Daily predictions for brighter satellites

Satellite Brightness Start Highest point End
(mag) Time Altitude Azimuth Time Altitude Azimuth Time Altitude Azimuth
Cosmos 1190 Rocket 4.4 18:35:22 10° NNW 18:40:26 44° ENE 18:45:28 10° SE
Cosmos 1939 Rocket 3.0 18:37:19 10° SE 18:41:01 48° ENE 18:44:46 10° N
H-2A R/B 3.4 18:41:27 10° ESE 18:45:03 20° ENE 18:48:43 10° NNE
CSL-04 Rocket 4.1 18:40:02 10° S 18:45:33 74° WSW 18:51:08 10° NNW
Cosmos 614 Rocket 4.2 18:41:33 10° NNW 18:46:40 52° ENE 18:51:43 10° SE
Cosmos 2237 Rocket 2.3 18:43:22 10° NNW 18:49:03 62° ENE 18:54:42 10° SE
NOSS 3-4 (A) 4.0 18:42:13 10° NW 18:49:12 83° SW 18:56:52 10° SE
NOSS 3-4 (C) 4.0 18:42:18 10° NW 18:49:18 83° SW 18:56:58 10° SE
Cosmos 2333 Rocket 2.9 18:43:51 10° NW 18:49:27 58° WSW 18:55:03 10° S
Cosmos 1441 Rocket 3.1 18:45:47 10° S 18:49:32 72° E 18:53:18 10° NNE
ADEOS Rocket 4.5 18:47:00 10° NE 18:52:50 24° E 18:58:48 10° SE
Cosmos 2154 Rocket 4.0 18:47:59 10° N 18:54:13 77° E 19:00:25 10° SSE
NOSS 0 Rocket 4.0 18:49:26 10° NNW 18:55:41 86° WSW 19:01:55 10° SSE
Meteor 2-15 Rocket 4.4 18:51:32 10° S 18:57:39 81° E 19:03:50 10° NNE
Ariane Rocket 3.0 18:53:50 10° SSE 18:58:53 78° ENE 19:03:59 10° NNW
Cosmos 1980 3.7 18:53:34 10° NNW 18:59:15 77° ENE 19:04:54 10° SSE
SL-8 Rocket 4.5 18:54:04 10° N 18:59:51 39° ENE 19:05:33 10° SE
Cosmos 389 Rocket 2.6 18:57:06 10° N 19:00:26 48° ENE 19:03:46 10° SSE
HJ-1C 3.5 18:57:09 10° SSE 19:00:27 57° ENE 19:03:48 10° N
FREGAT/IRIS 3.1 18:58:14 10° SE 19:00:48 33° ENE 19:03:23 10° N
GP-B 3.1 18:57:21 10° N 19:01:50 87° E 19:06:16 10° S
YAOGAN 1 3.8 19:00:00 10° S 19:04:09 46° W 19:08:21 10° NNW
DMSP B5D1-3 4.5 18:59:13 10° NNE 19:04:20 79° ESE 19:09:26 10° SSW
Resurs 01 Rocket 3.4 19:02:49 12° E 19:04:48 16° ENE 19:07:25 10° NNE
CZ-2C R/B 4.4 19:01:06 10° NE 19:05:02 30° E 19:08:55 10° SSE
EO 1 Delta rocket 4.4 18:59:47 10° SSE 19:05:53 54° ENE 19:10:51 10° N
Cosmos 1892 Rocket 3.8 19:03:44 10° N 19:08:03 47° ENE 19:12:17 10° SSE
Cosmos 407 Rocket 3.4 19:03:29 10° NNW 19:08:39 80° ENE 19:13:46 10° SSE
SAR-Lupe-2 4.0 19:07:24 10° NNE 19:10:46 38° E 19:14:06 10° SSE
USA 234 3.8 19:05:08 10° NE 19:11:31 57° NNW 19:17:54 10° W
Cosmos 2056 Rocket 3.7 19:08:12 10° S 19:13:24 50° ESE 19:18:37 10° NNE
Cosmos 1544 3.8 19:10:07 10° SSW 19:13:39 57° WNW 19:17:15 10° N
ASTEX 1 3.4 19:10:38 10° NNE 19:15:27 56° E 19:20:15 10° S
CZ-4C R/B 4.4 19:12:14 10° NW 19:16:50 21° N 19:22:00 10° NE
MONITOR-E 3.8 19:14:33 10° SSE 19:17:21 89° W 19:20:10 10° NNW
Cosmos 1707 2.9 19:13:32 10° NNW 19:17:28 76° W 19:21:23 10° S
Cosmos 2219 Rocket 3.8 19:14:31 10° NW 19:19:33 35° WSW 19:24:34 10° S
SL-16 R/B 2.6 19:16:31 10° NNW 19:22:01 47° NE 19:26:04 18° ESE
Cosmos 1624 Rocket 3.9 19:19:30 10° S 19:24:37 63° ESE 19:29:47 10° NNE
Cosmos 1140 Rocket 3.4 19:19:26 10° NNW 19:24:38 74° ENE 19:29:46 10° SSE
ISS -3.6 19:21:58 10° SW 19:25:12 53° SSE 19:26:54 24° E
ERBS 2.4 19:22:31 10° NW 19:25:53 62° NNE 19:27:33 27° ESE
RESURS DK-1 3.8 19:22:58 10° N 19:26:19 23° NE 19:27:47 19° ENE
SL-8 R/B 3.7 19:22:05 10° W 19:26:54 87° N 19:30:06 21° E
Cosmos 1626 4.4 19:28:20 10° NE 19:28:57 11° NE 19:28:57 11° NE
Cosmos 2084 Rocket 3.5 19:25:23 10° SSW 19:29:45 59° SE 19:34:09 10° NE
Okean 1-7 Rocket 3.5 19:25:45 10° N 19:30:13 80° E 19:34:43 10° SSE
Cosmos 1954 Rocket 4.0 19:26:48 10° NNW 19:32:01 66° ENE 19:36:06 16° SE
ATLAS 2AS CENTAUR R/B 4.3 19:25:20 10° NW 19:32:08 37° WSW 19:38:27 10° S
Meteor 2-5 Rocket 3.8 19:27:26 10° N 19:33:15 62° ENE 19:39:06 10° SSE
GEOS 3 Rocket 3.6 19:30:05 15° SE 19:34:24 86° SW 19:39:34 10° NW
Cosmos 2082 4.0 19:32:43 10° S 19:38:04 43° ESE 19:43:26 10° NE
USA 186 1.8 19:36:55 16° SSE 19:39:34 83° E 19:43:01 10° N
Meteor 1-4 Rocket 2.6 19:37:28 10° NNW 19:40:59 72° W 19:44:22 11° S
ARGOS 3.3 19:39:17 18° SE 19:43:09 56° ENE 19:48:26 10° N
Cosmos 1544 Rocket 3.6 19:43:36 10° S 19:47:58 58° E 19:52:22 10° NNE
Cosmos 1455 Rocket 3.0 19:43:41 10° S 19:48:05 71° E 19:52:33 10° NNE
SJ-6B 2.8 19:46:28 16° SSE 19:49:47 90° WSW 19:53:52 10° NNW
Cosmos 2227 Rocket 2.1 19:46:59 10° SSW 19:52:39 81° ESE 19:58:21 10° NNE
SPOT 3 Rocket 3.5 19:49:57 12° SSE 19:54:49 87° WSW 20:00:01 10° NNW
Cosmos 1766 3.2 19:54:23 26° SSE 19:56:25 58° E 20:00:17 10° NNE
Cosmos 1371 Rocket 4.5 19:51:34 10° SSW 19:56:51 65° WNW 20:02:13 10° NNE
MetOp-A 4.4 19:55:16 31° SE 19:57:29 49° ENE 20:02:39 10° N
CZ-2C R/B 3.4 19:55:54 31° ESE 19:58:08 49° ENE 20:03:32 10° N
Cosmos 2219 3.8 19:52:59 10° SW 19:58:40 59° WNW 20:04:22 10° NNE
Cosmos 2297 Rocket 2.2 19:57:11 10° SSW 20:02:50 82° WNW 20:08:32 10° NNE
Transit 2A Rocket 4.5 20:01:29 10° NNW 20:05:55 66° NE 20:06:48 51° ESE
Cosmos 1626 Rocket 3.4 20:01:51 10° N 20:06:09 65° ENE 20:07:10 48° SE
Cosmos 676 Rocket 4.4 20:01:26 10° NNW 20:06:39 63° WSW 20:10:26 18° S
Cosmos 1452 Rocket 3.5 20:02:26 10° S 20:07:32 54° ESE 20:12:39 10° NNE
Lacrosse 5 rocket 1.1 20:08:19 10° WSW 20:11:59 76° NW 20:12:54 49° NE
Cosmos 405 Rocket 3.9 20:08:58 10° SW 20:12:28 41° WNW 20:16:02 10° N
Cosmos 1943 4.0 20:16:33 10° NNW 20:21:44 34° NE 20:22:30 32° ENE
Cosmos 1674 3.1 20:18:41 10° NNW 20:22:21 57° W 20:23:12 44° SW
Cosmos 1437 Rocket 3.4 20:18:51 10° NNW 20:22:33 50° W 20:23:45 35° SSW
H-2A R/B 2.2 20:21:02 24° S 20:23:59 66° WSW 20:29:03 10° NNW
SL-08 R/B 4.5 20:17:40 10° N 20:24:12 89° E 20:28:00 27° S
Cosmos 2181 Rocket 4.5 20:18:27 10° SSW 20:24:39 62° WNW 20:30:59 10° N
Resurs 1-3 3.6 20:24:58 51° S 20:26:02 79° WSW 20:30:27 10° NNW
Cosmos 1602 Rocket 3.4 20:23:50 10° N 20:28:13 89° E 20:28:32 77° SSE
Nadezhda 3 Rocket 4.0 20:30:13 49° ESE 20:31:08 54° E 20:37:11 10° NNE
Cosmos 2237 Rocket 4.2 20:28:11 10° NW 20:32:40 24° WSW 20:37:07 10° SSW
ADEOS Rocket 3.5 20:31:33 10° NNE 20:39:00 84° WNW 20:46:48 10° SSW
Cosmos 1850 Rocket 3.9 20:34:25 10° NNW 20:39:38 81° WSW 20:40:27 63° S
Resurs 01 Rocket 1.7 20:40:24 69° SW 20:40:44 73° WSW 20:45:12 10° NNW
SL-24 R/B 4.4 20:40:09 57° SSW 20:41:03 74° WSW 20:46:13 10° NNW
Meteor 1-21 Rocket 4.4 20:35:31 10° N 20:41:19 54° ENE 20:41:31 54° E
Meteor 1-24 Rocket 4.4 20:36:05 10° NNW 20:41:47 57° W 20:45:28 23° SSW
Cosmos 1805 4.4 20:42:08 23° SW 20:44:06 41° WNW 20:47:49 10° N
Cosmos 1821 Rocket 3.8 20:38:38 10° N 20:44:47 72° ENE 20:45:40 62° SE
Cosmos 2239 Rocket 4.3 20:45:42 10° N 20:51:59 73° E 20:52:37 67° ESE
USA 234 4.2 20:49:56 21° NE 20:53:55 42° N 20:59:58 10° WNW
ERS-1 Rocket 3.9 21:00:53 37° NNE 21:00:53 37° NNE 21:04:23 10° N
Cosmos 1603 3.6 20:56:10 10° NNW 21:01:45 78° NE 21:01:45 78° NE
ISS -1.1 20:58:44 10° W 20:59:49 19° W 20:59:49 19° W
SPOT 5 4.2 21:05:27 31° NNE 21:05:27 31° NNE 21:08:35 10° N
CZ-2C R/B 3.4 20:58:50 10° NNE 21:02:35 41° NE 21:02:35 41° NE
RESURS DK-1 3.6 21:00:36 10° NW 21:03:41 39° WNW 21:03:41 39° WNW
Cosmos 1626 4.0 21:01:41 10° NNW 21:03:31 27° NNW 21:03:31 27° NNW
SL-16 R/B 3.6 21:00:57 10° NW 21:05:58 33° WSW 21:07:58 26° SW
CZ-4C R/B 4.0 21:01:46 10° NW 21:07:32 30° NNE 21:09:50 26° NE
MetOp-B 4.2 21:12:16 73° W 21:12:16 73° W 21:17:28 10° NNW
Spot 2 Rocket 3.8 21:14:51 61° WNW 21:14:51 61° WNW 21:19:29 10° NNW
Terra 3.6 21:21:13 24° NNE 21:21:13 24° NNE 21:23:23 10° N
SPOT 1/Viking Rocket 4.3 21:25:03 47° N 21:25:03 47° N 21:28:44 10° NNW
Cosmos 2227 Rocket 4.4 21:32:58 10° W 21:37:24 23° NW 21:41:52 10° N
Cosmos 1934 Rocket 4.2 21:35:52 10° NNW 21:41:26 66° WNW 21:41:26 66° WNW
Lacrosse 5 rocket 4.3 21:48:24 10° WNW 21:48:35 11° WNW 21:48:35 11° WNW
Cosmos 2263 Rocket 4.2 22:00:08 19° NNE 22:00:08 19° NNE 22:01:36 10° NNE
Cosmos 1943 4.4 22:00:31 10° NW 22:04:19 37° WNW 22:04:19 37° WNW
USA 234 4.0 22:37:17 49° NNW 22:37:17 49° NNW 22:42:35 10° NW
CZ-4C R/B 3.6 22:50:11 10° NW 22:54:59 48° NNW 22:54:59 48° NNW
Cosmos 2082 Rocket 4.4 23:15:43 10° NNW 23:18:12 21° N 23:18:12 21° N
Cosmos 2263 Rocket 4.4 23:41:49 20° NNW 23:41:49 20° NNW 23:44:53 10° N
